This demonstration page uses our WeatherBlox Daily Observations layout. Learn more.

Left ArrowRight Arrow

Hourly Observations for April 23, 2015

Temp ( °F °C ) Dew Point ( °F °C ) Humidity (%) Winds ( mph kmh ) Pressure ( in mb ) Visibility ( mi km ) Precip ( " mm )
12:53 am 00:53 Cloudy 48 8.9 38 3.3 68 68 ENE 7 11 29.74 1007 10 16 N/A
1:53 am 01:53 Cloudy with Light Rain 46 7.8 41 5 83 83 S 5 7 29.75 1007 10 16 0.02 0.51
2:53 am 02:53 Cloudy with Light Rain 47 8.3 41 5 80 80 NNW 8 13 29.77 1008 10 16 N/A
3:53 am 03:53 Cloudy 48 8.9 43 6.1 83 83 NE 8 13 29.76 1008 10 16 N/A
4:53 am 04:53 Partly Cloudy 44 6.7 41 5 89 89 SE 8 13 29.76 1008 10 16 N/A
5:53 am 05:53 Clear 41 5 38 3.3 89 89 ESE 3 6 29.78 1008 10 16 N/A
6:53 am 06:53 Sunny 39 3.9 38 3.3 96 96 N N/A 29.79 1009 10 16 N/A
7:53 am 07:53 Sunny 43 6.1 41 5 93 93 SW 6 9 29.80 1009 10 16 N/A
8:53 am 08:53 Sunny 48 8.9 40 4.4 74 74 WNW 5 7 29.80 1009 10 16 N/A
9:53 am 09:53 Sunny 50 10 37 2.8 61 61 WSW 6 9 29.80 1009 10 16 N/A
10:53 am 10:53 Sunny 54 12.2 39 3.9 57 57 VRB 5 7 29.79 1009 10 16 N/A
11:53 am 11:53 Sunny 56 13.3 31 -0.6 39 39 N N/A 29.77 1008 10 16 N/A
12:53 pm 12:53 Sunny 58 14.4 27 -2.8 31 31 N N/A 29.75 1007 10 16 N/A
1:53 pm 13:53 Sunny 59 15 28 -2.2 31 31 S 6 9 29.73 1007 10 16 N/A
2:53 pm 14:53 Sunny 62 16.7 29 -1.7 29 29 NE 3 6 29.70 1006 10 16 N/A
3:53 pm 15:53 Sunny 63 17.2 29 -1.7 28 28 NNW 7 11 29.67 1005 10 16 N/A
4:53 pm 16:53 Sunny 64 17.8 28 -2.2 26 26 NW 3 6 29.65 1004 10 16 N/A
5:53 pm 17:53 Sunny 63 17.2 26 -3.3 25 25 SSW 7 11 29.65 1004 10 16 N/A
6:53 pm 18:53 Partly Cloudy 61 16.1 26 -3.3 26 26 N N/A 29.64 1004 10 16 N/A
7:53 pm 19:53 Cloudy 60 15.6 24 -4.4 25 25 E 3 6 29.62 1003 10 16 N/A
8:53 pm 20:53 Cloudy 53 11.7 34 1.1 48 48 ESE 5 7 29.62 1003 10 16 N/A
9:53 pm 21:53 Cloudy 51 10.6 36 2.2 56 56 ESE 8 13 29.62 1003 10 16 N/A
10:53 pm 22:53 Mostly Clear 49 9.4 35 1.7 59 59 E 5 7 29.61 1003 10 16 N/A
11:53 pm 23:53 Mostly Cloudy 50 10 35 1.7 57 57 VRB 3 6 29.60 1002 10 16 N/A

Powered by AerisWeather